User: anonymous   Login
Location: Aressy
(43.2833°N, 0.3167°W)
Time: 07:28:41
(UTC+00:00)
Language:

COSMO-SKYMED 1 - Orbit

View from above orbital plane
View from above orbital plane
View from above satellite
View from above satellite

Ground track
Ground track

The orbit data is extracted from the following two-line orbital elements,

1 31598U 07023A   21108.89543258  .00000209  00000-0  32800-4 0  9992
2 31598  97.8898 293.6319 0001541  90.0335 270.1053 14.82157613750076
Epoch (UTC): 18 April 2021 21:29:25
Eccentricity: 0.0001541
inclination: 97.8898°
perigee height: 621 km
apogee height: 623 km
right ascension of ascending node: 293.6319°
argument of perigee: 90.0335°
revolutions per day: 14.82157613
mean anomaly at epoch: 270.1053°
orbit number at epoch: 75007

The dashed part of the orbit path shows where the satellite is in the earth's shadow,  

DLR